Regional Weather Roundup
Issued by NWS Grand Forks, ND

Home | Current Version | Previous Version | Graphics & Text | Print | Product List | Glossary On
Versions: 1 2 3 4 5 6 7 8 9 10 11 12 13 14 15 16 17 18 19 20 21 22 23 24 25 26 27 28 29 30 31 32 33 34 35 36 37 38 39 40 41 42 43 44 45 46 47 48 49 50
000
ASUS43 KFGF 200331
RWRFGF
PRAIRIE TO PINES  WEATHER ROUNDUP
NATIONAL WEATHER SERVICE EASTERN NORTH DAKOTA/GRAND FORKS ND
1000 PM CDT SUN OCT 19 2014

 **SATELLITE DATA USED TO AUGMENT SKY COVER AT AUTOMATED STATIONS**
 *****  WEATHER ACROSS EASTERN NORTH DAKOTA  *****

CITY           SKY/WX    TMP DP  RH WIND       PRES   REMARKS
GRAND FORKS    CLEAR     46  38  73 NW8       29.90R
GRAND FRKS AFB CLEAR     50  39  67 N8        29.91R
GRAND FRKS NWS   N/A     48 N/A N/A N7          N/A
DEVILS LAKE    CLEAR     45  34  65 W3        29.94R
FARGO          CLEAR     47  38  71 W3        29.91R
WAHPETON ARPT  CLEAR     45  32  61 W7        29.93S
$$

 ***** WEATHER ACROSS CENTRAL AND WESTERN NORTH DAKOTA  *****

CITY           SKY/WX    TMP DP  RH WIND       PRES   REMARKS
BISMARCK       CLEAR     46  37  71 CALM      30.01S
MINOT          CLEAR     48  36  63 SW9       29.98R
JAMESTOWN      CLEAR     46  37  71 NW5       29.96R
MINOT AFB      CLEAR     42  36  81 W8        29.97S
GARRISON         N/A     44  33  65 N3        30.00R
WILLISTON      CLEAR     44  36  73 CALM      29.99S
DICKINSON      PTCLDY    42  34  73 S7        30.02S
HETTINGER      CLEAR     42  34  73 CALM      30.06R
$$

 *****  OTHER AIRPORT OBSERVATIONS IN OUR AREA  *****

CITY           SKY/WX    TMP DP  RH WIND       PRES   REMARKS
WALHALLA       FAIR      50  39  66 NW7       29.92S
GRAFTON AIRPOR FAIR      50  39  66 NW8       29.91R
VALLEY CITY AR FAIR      50  39  66 NW12      29.95R
CANDO          FAIR      41  36  81 NW5       29.95S
CAVALIER APRT  FAIR      50  39  66 NW7       29.91S
GWINNER        CLEAR     45  36  70 W8        29.96S
SHEYENNE NWR     N/A     47  37  69 W3        29.95
ROLLA          FAIR      48  36  61 W9        29.96S
 ***** THE ABOVE OBSERVATIONS ARE NON NWS ARE NOT QUALITY
       CONTROLLED AND MAY MIS-REPORT RAIN FOR SNOW...
$$

  *****  WEATHER ACROSS NORTHERN MINNESOTA  *****

CITY           SKY/WX    TMP DP  RH WIND       PRES   REMARKS
FLAG ISLAND    PTCLDY    52  45  76 NW10      29.84S
WARROAD        CLOUDY    46  43  87 W3        29.87R
ROSEAU         CLEAR     45  39  81 CALM      29.87S
HALLOCK        CLEAR     46  39  76 NW7       29.89R
THF RVR FALLS  CLEAR     48  41  76 CALM      29.89S
BAUDETTE       CLOUDY    52  42  69 N13       29.85S
WASKISH        CLEAR     43  39  87 CALM      29.86S FOG
CROOKSTON      CLEAR     46  39  76 NW6       29.90R
STEPHEN NDAWN    N/A     50  39  66 NW5         N/A
GREENBUSH NDAW   N/A     48  39  71 NW3         N/A
$$
  *****  WEATHER ACROSS CENTRAL AND WEST MINNESOTA  *****

CITY           SKY/WX    TMP DP  RH WIND       PRES   REMARKS
FOSSTON        MOCLDY    43  37  81 CALM      29.90R
BEMIDJI        CLEAR     44  39  81 W3        29.87S
PARK RAPIDS    CLEAR     49  41  74 NW5       29.88R
ELBOW LAKE     FAIR      49  40  70 N3        29.91S
WADENA         CLEAR     48  41  76 W3        29.89S
DETROIT LAKES  CLEAR     48  41  76 W3        29.91S
MOORHEAD       CLEAR     48  41  76 W5        29.92R
FERGUS FALLS   CLEAR     45  36  70 W3        29.92S
MORRIS MN      CLEAR     46  37  71 NW5       29.92R
STAPLES        CLEAR     45  39  81 W5        29.89R
$$
  *****  WEATHER ELSEWHERE ACROSS MINNESOTA  *****

CITY           SKY/WX    TMP DP  RH WIND       PRES   REMARKS
DULUTH         PTCLDY    53  41  63 NW13      29.79R
INTRNTL FALLS  CLOUDY    49  42  77 NW7       29.82R
ELY            MOCLDY    48  41  76 NW7       29.80R
CLOQUET        CLEAR     52  41  66 NW10      29.80S
WHEATON        CLEAR     46  37  71 SW5       29.95S
BRAINERD       CLEAR     53  42  66 NW9       29.87R
HIBBING        CLEAR     47  39  74 N6        29.82R
ALEXANDRIA     CLEAR     53  41  63 NW8       29.92R
SAINT CLOUD    CLEAR     57  42  57 NW10      29.86R
MINNEAPOLIS    CLEAR     59  42  53 NW14      29.82R
$$

  *****  WEATHER ACROSS SOUTH DAKOTA  *****

CITY           SKY/WX    TMP DP  RH WIND       PRES   REMARKS
SIOUX FALLS    CLEAR     49  40  71 NW3       29.94R
BROOKINGS      NOT AVBL
WATERTOWN      CLEAR     46  37  71 N6        29.96R
HURON          CLEAR     48  37  65 NW6       29.97R
SISSETON         N/A     49  38  65 NW9       29.94R
ABERDEEN       CLEAR     50  38  63 NW5       29.98R
MITCHELL       CLEAR     54  39  57 NW8       29.97R
PIERRE         CLEAR     57  38  48 N10       30.00R
MOBRIDGE       CLEAR     48  38  68 N7        29.99R
RAPID CITY     CLEAR     47  38  71 NW3       30.08R
$$

  *****  SOME WEATHER IN NEARBY STATES *****

CITY           SKY/WX    TMP DP  RH WIND       PRES   REMARKS
GLASGOW MT     CLEAR     52  40  63 E13       29.94S
GREAT FALLS MT CLEAR     53  34  48 S10       29.90S
CHEYENNE WY    CLEAR     54  33  45 CALM      30.19R
SCOTTSBLUFF NE CLEAR     52  37  56 S3        30.10R
OMAHA NE       CLEAR     57  47  69 SE6       29.95S
DES MOINES IA  CLEAR     56  46  69 SW6       29.92S
DAVENPORT IA   CLEAR     53  42  66 SW10      29.94S
CHICAGO IL     CLOUDY    53  42  66 SW8       29.93S
EAU CLAIRE WI  CLEAR     45  43  93 SW5       29.76S
LA CROSSE WI   CLEAR     58  46  64 SE10      29.79S
$$

  *****  SOME NATIONAL WEATHER *****

CITY           SKY/WX    TMP DP  RH WIND       PRES   REMARKS
LA GUARDIA NY  PTCLDY    46  30  53 NW15      30.07R
RALEIGH NC     CLEAR     47  43  86 CALM      30.14R
ATLANTA GA     PTCLDY    57  49  74 CALM      30.11R
NEW ORLEANS LA PTCLDY    64  56  75 E3        30.07S
OKLAHOMA CITY  PTCLDY    62  54  74 S6        30.05R
ALBUQUERQUE NM PTCLDY    60  40  47 E13       30.14S
SALT LAKE CITY CLEAR     55  46  71 CALM      30.03S
LOS ANGELES CA MOCLDY    68  64  87 W10       29.86R
BOISE ID       CLEAR     59  36  42 E3        29.88R
SEATTLE WA     PTCLDY    65  53  65 SW9       29.71R
$$

*** WEATHER ACROSS MANITOBA...SASKATCHEWAN AND ONTARIO ***
                ***ONTARIO***

CITY           SKY/WX    TMP DP  RH WIND       PRES   REMARKS
GERALDTON      DRZL/FOG N/A N/A N/A SE2         N/A  VSB 3/4
THUNDER BAY    CLOUDY    45  43  93 W3        29.74F
SIOUX LOOKOUT  CLOUDY    43  43 100 NW8       29.79F
TORONTO        CLOUDY    41  34  75 W5        30.00F
BIG TROUT LK   CLOUDY    32  32 100 NE3       29.80S
PICKLE LAKE    NOT AVBL
DRYDEN         NOT AVBL
KENORA         PTCLDY    48  41  76 NW6       29.84S
$$
                *** MANITOBA***

CITY           SKY/WX    TMP DP  RH WIND       PRES   REMARKS
BRANDON        CLEAR     41  36  81 NE9       29.95R
DAUPHIN        CLEAR     39  36  87 VRB2      29.95R
ISLAND LAKE    LGT RAIN  37  37 100 NE10      29.90R FOG
PILOT MOUND      N/A     50  39  66 NE6         N/A
THE PAS        CLOUDY    48  39  71 N2        29.95R
THOMPSON       FLURRIES  36  36 100 NW3       29.95S
WINNIPEG       CLEAR     39  36  87 N7        29.91R
LYNN LAKE      CLOUDY    37  34  87 E3        29.95S
CHURCHILL      CLOUDY    34  32  93 W5        29.93R
GILLAM         CLOUDY    34  34 100 N8        29.92F FOG
$$
                ***SASKATCHEWAN***

CITY           SKY/WX    TMP DP  RH WIND       PRES   REMARKS
ESTEVAN        CLEAR     45  37  76 S6        29.97S
KINDERSLEY     PTCLDY    52  39  62 SE10      29.80
LLOYDMINSTER   MOCLDY    54  34  47 S16       29.73F
PRINCE ALBERT  CLEAR     43  37  81 E7        29.87F
REGINA         PTCLDY    46  39  76 SE9       29.93S
YORKTON        CLEAR     50  37  62 SW7       29.93S
N. BATTLEFORD  CLEAR     45  36  70 SE12      29.82F
LA RONGE       PTCLDY    43  39  87 E5        29.90S
SASKATOON      PTCLDY    48  37  66 S7        29.87F
SWIFT CURRENT  CLEAR     48  39  71 S13       29.87F
$$
NOTE: THESE ARE AUTOMATED STATIONS WITH LIMITED QUALITY CONTROL
      "FAIR" INDICATES FEW OR NO CLOUDS BELOW 12,000 FEET WITH NO
      SIGNIFICANT WEATHER AND/OR OBSTRUCTIONS TO VISIBILITY.
      SKY/WX - SKY CONDITION AND SIGNIFICANT WEATHER.
      TMP - AIR TEMPERATURE.    DP   - DEWPOINT TEMPERATURE.
      RH  - RELATIVE HUMIDITY.  PRES - PRESSURE.
      HX  - HEAT INDEX.         WCI  - WIND CHILL INDEX.
$



USA.gov is the U.S. government's official web portal to all federal, state and local government web resources and services.